This is the latest recevied weather packets stored in our database for station/object WB5LFS-1. If no packets are shown the sender has not sent any weather packets the latest 10 day(s).
| Time | Temp. | Humidity | Pressure | Rain* | Wind** | Luminosity | Snow |
|---|---|---|---|---|---|---|---|
| 1777740113 | 13.33° C | 58% | 1013.5 hPa | 0 mm | - | - | - |
| 1777739213 | 13.33° C | 58% | 1013.6 hPa | 0 mm | - | - | - |
| 1777738313 | 13.33° C | 58% | 1013.7 hPa | 0 mm | - | - | - |
| 1777737413 | 13.33° C | 62% | 1013.7 hPa | 0 mm | - | - | - |
| 1777736513 | 13.33° C | 62% | 1013.7 hPa | 0 mm | - | - | - |
| 1777735613 | 13.33° C | 63% | 1013.5 hPa | 0 mm | - | - | - |
| 1777734713 | 12.78° C | 64% | 1013.8 hPa | 0 mm | - | - | - |
| 1777733813 | 12.78° C | 65% | 1014 hPa | 0 mm | - | - | - |
| 1777732913 | 12.78° C | 64% | 1014.1 hPa | 0 mm | - | - | - |
| 1777732013 | 12.78° C | 63% | 1013.6 hPa | 0 mm | - | - | - |
| 1777731113 | 12.78° C | 67% | 1013.6 hPa | 0 mm | - | - | - |
| 1777730213 | 12.22° C | 67% | 1013.3 hPa | 0 mm | - | - | - |
| 1777729313 | 12.78° C | 68% | 1013.2 hPa | 0 mm | - | - | - |
| 1777728413 | 12.78° C | 70% | 1013 hPa | 0 mm | - | - | - |
| 1777727513 | 12.22° C | 73% | 1013.2 hPa | 0 mm | - | - | - |
| 1777726613 | 12.22° C | 74% | 1013.3 hPa | 0 mm | - | - | - |
| 1777725713 | 12.22° C | 76% | 1013.2 hPa | 0 mm | - | - | - |
| 1777724813 | 11.67° C | 75% | 1013.2 hPa | 0 mm | - | - | - |
| 1777723913 | 11.67° C | 77% | 1013.1 hPa | 0 mm | - | - | - |
| 1777723014 | 11.67° C | 79% | 1013.1 hPa | 0 mm | - | - | - |
| 1777722113 | 11.11° C | 81% | 1013.2 hPa | 0 mm | - | - | - |
| 1777721213 | 11.11° C | 82% | 1013.3 hPa | 0 mm | - | - | - |
| 1777720313 | 11.11° C | 83% | 1013.4 hPa | 0 mm | - | - | - |
| 1777719414 | 11.11° C | 83% | 1013.1 hPa | 0 mm | - | - | - |
| 1777718514 | 11.11° C | 84% | 1012.9 hPa | 0 mm | - | - | - |
* Rain latest hour (hover to see other rain measurements)
** Current wind speed in m/s (hover to see current wind gust speed)